sat.trackr.live / text

‹ back to catalog

STARLINK-30422

NORAD 57826 · 2023-138U

PAYLOAD ACTIVE UNKNOWN

§ Identity

Operator
Country
US
Launch date
2023-09-09
Launch site
AFETR
Launch vehicle
Mass (kg)
RCS (m²)

Purposes: comms

External: N2YO · Heavens-Above · Gunter

§ Orbital elements

Epoch: 2026-09-20T21:46:57.671616Z

Period
94.27 min
Inclination
43.0033°
Eccentricity
0.0000781
Mean motion
15.27577851 rev/d
Perigee alt
482.5 km
Apogee alt
483.6 km
Semi-major
6,861.2 km
B*
1.2559e-5
RAAN
211.7566°
Arg perigee
275.9641°
Mean anomaly
84.1121°
Rev number
16,858

§ Raw data

STARLINK-304221 57826U 23138U   26263.90761194  .00000084  00000+0  12559-4 0  99982 57826  43.0033 211.7566 0000781 275.9641  84.1121 15.27577851168584

JSON: /api/v1/satellites/57826 · /tle

For live sub-satellite position, see the globe view (requires WebGL).

§ Visibility from observer

Set your observer location to see the next 7 days of passes ≥ 10°. The values pass through the URL so the page stays shareable.

No JS? Fill the form by hand. The geolocation button needs JavaScript.